Time,TemperatureF,DewpointF,PressureIn,WindDirection,WindDirectionDegrees,WindSpeedMPH,WindSpeedGustMPH,Humidity,HourlyPrecipIn,Conditions,Clouds,dailyrainin,SoftwareType,DateUTC
2013-02-07 00:09:00,49.0,37.3,26.84,SW,225,0.0,5.0,64,0.00,,,0.00,Weather View 32 v70,2013-02-07 07:09:00,
2013-02-07 00:19:00,49.0,37.7,26.85,NNE,22,0.0,5.0,65,0.00,,,0.00,Weather View 32 v70,2013-02-07 07:19:00,
2013-02-07 00:25:00,49.0,37.7,26.85,NNE,22,0.0,5.0,65,0.00,,,0.00,Weather View 32 v70,2013-02-07 07:25:00,
2013-02-07 00:39:00,49.0,37.7,26.85,ENE,67,0.0,5.0,65,0.00,,,0.00,Weather View 32 v70,2013-02-07 07:39:00,
2013-02-07 00:49:00,49.0,37.7,26.85,ENE,67,0.0,5.0,65,0.00,,,0.00,Weather View 32 v70,2013-02-07 07:49:00,
2013-02-07 00:59:00,48.0,37.2,26.85,NNE,22,0.0,5.0,66,0.00,,,0.00,Weather View 32 v70,2013-02-07 07:59:00,
2013-02-07 01:09:00,48.0,37.2,26.86,NNW,337,0.0,5.0,66,0.00,,,0.00,Weather View 32 v70,2013-02-07 08:09:00,
2013-02-07 01:19:00,48.0,37.2,26.86,NW,315,0.0,5.0,66,0.00,,,0.00,Weather View 32 v70,2013-02-07 08:19:00,
2013-02-07 01:25:00,48.0,37.2,26.86,NW,315,0.0,5.0,66,0.00,,,0.00,Weather View 32 v70,2013-02-07 08:25:00,
2013-02-07 01:39:00,48.0,37.2,26.86,NE,45,0.0,5.0,66,0.00,,,0.00,Weather View 32 v70,2013-02-07 08:39:00,
2013-02-07 01:49:00,48.0,37.5,26.86,SE,135,0.0,5.0,67,0.00,,,0.00,Weather View 32 v70,2013-02-07 08:49:00,
2013-02-07 01:59:00,47.0,36.2,26.86,North,360,0.0,5.0,66,0.00,,,0.00,Weather View 32 v70,2013-02-07 08:59:00,
2013-02-07 02:09:00,47.0,36.2,26.86,NNE,22,0.0,4.0,66,0.00,,,0.00,Weather View 32 v70,2013-02-07 09:09:00,
2013-02-07 02:19:00,48.0,37.5,26.87,NNE,22,0.0,4.0,67,0.00,,,0.00,Weather View 32 v70,2013-02-07 09:19:00,
2013-02-07 02:26:00,48.0,37.5,26.87,NNE,22,0.0,4.0,67,0.00,,,0.00,Weather View 32 v70,2013-02-07 09:26:00,
2013-02-07 02:39:00,47.0,36.2,26.86,NE,45,0.0,4.0,66,0.00,,,0.00,Weather View 32 v70,2013-02-07 09:39:00,
2013-02-07 02:49:00,47.0,36.2,26.86,North,360,0.0,4.0,66,0.00,,,0.00,Weather View 32 v70,2013-02-07 09:49:00,
2013-02-07 02:59:00,47.0,36.6,26.86,NE,45,0.0,4.0,67,0.00,,,0.00,Weather View 32 v70,2013-02-07 09:59:00,
2013-02-07 03:09:00,47.0,37.3,26.86,NE,45,0.0,4.0,69,0.00,,,0.00,Weather View 32 v70,2013-02-07 10:09:00,
2013-02-07 03:19:00,46.0,36.4,26.87,ESE,112,0.0,0.0,69,0.00,,,0.00,Weather View 32 v70,2013-02-07 10:19:00,
2013-02-07 03:26:00,46.0,36.4,26.87,ESE,112,0.0,0.0,69,0.00,,,0.00,Weather View 32 v70,2013-02-07 10:26:00,
2013-02-07 03:39:00,46.0,37.1,26.87,NNE,22,0.0,0.0,71,0.00,,,0.00,Weather View 32 v70,2013-02-07 10:39:00,
2013-02-07 03:49:00,45.0,35.8,26.87,NNE,22,0.0,0.0,70,0.00,,,0.00,Weather View 32 v70,2013-02-07 10:49:00,
2013-02-07 03:59:00,45.0,37.2,26.87,North,360,0.0,0.0,74,0.00,,,0.00,Weather View 32 v70,2013-02-07 10:59:00,
2013-02-07 04:09:00,45.0,37.2,26.87,NNE,22,0.0,4.0,74,0.00,,,0.00,Weather View 32 v70,2013-02-07 11:09:00,
2013-02-07 04:19:00,45.0,37.2,26.87,North,360,0.0,4.0,74,0.00,,,0.00,Weather View 32 v70,2013-02-07 11:19:00,
2013-02-07 04:27:00,45.0,37.2,26.87,North,360,0.0,4.0,74,0.00,,,0.00,Weather View 32 v70,2013-02-07 11:27:00,
2013-02-07 04:39:00,46.0,37.1,26.87,East,90,0.0,4.0,71,0.00,,,0.00,Weather View 32 v70,2013-02-07 11:39:00,
2013-02-07 04:49:00,46.0,37.1,26.87,North,360,0.0,4.0,71,0.00,,,0.00,Weather View 32 v70,2013-02-07 11:49:00,
2013-02-07 04:59:00,45.0,36.2,26.88,North,360,0.0,4.0,71,0.00,,,0.00,Weather View 32 v70,2013-02-07 11:59:00,
2013-02-07 05:09:00,45.0,36.5,26.87,ESE,112,0.0,4.0,72,0.00,,,0.00,Weather View 32 v70,2013-02-07 12:09:00,
2013-02-07 05:19:00,45.0,36.5,26.88,ENE,67,0.0,4.0,72,0.00,,,0.00,Weather View 32 v70,2013-02-07 12:19:00,
2013-02-07 05:27:00,45.0,36.5,26.88,ENE,67,0.0,4.0,72,0.00,,,0.00,Weather View 32 v70,2013-02-07 12:27:00,
2013-02-07 05:39:00,45.0,36.5,26.87,NNE,22,0.0,4.0,72,0.00,,,0.00,Weather View 32 v70,2013-02-07 12:39:00,
2013-02-07 05:49:00,45.0,36.2,26.88,NNE,22,0.0,4.0,71,0.00,,,0.00,Weather View 32 v70,2013-02-07 12:49:00,
2013-02-07 05:59:00,45.0,36.2,26.88,West,270,0.0,4.0,71,0.00,,,0.00,Weather View 32 v70,2013-02-07 12:59:00,
2013-02-07 06:09:00,45.0,35.8,26.88,NE,45,0.0,4.0,70,0.00,,,0.00,Weather View 32 v70,2013-02-07 13:09:00,
2013-02-07 06:19:00,45.0,36.2,26.88,NE,45,0.0,4.0,71,0.00,,,0.00,Weather View 32 v70,2013-02-07 13:19:00,
2013-02-07 06:28:00,45.0,36.2,26.88,NE,45,0.0,4.0,71,0.00,,,0.00,Weather View 32 v70,2013-02-07 13:28:00,
2013-02-07 06:39:00,45.0,36.2,26.89,NNE,22,0.0,4.0,71,0.00,,,0.00,Weather View 32 v70,2013-02-07 13:39:00,
2013-02-07 06:49:00,45.0,36.2,26.89,NNE,22,1.0,3.0,71,0.00,,,0.00,Weather View 32 v70,2013-02-07 13:49:00,
2013-02-07 06:59:00,45.0,35.8,26.89,NNW,337,0.0,3.0,70,0.00,,,0.00,Weather View 32 v70,2013-02-07 13:59:00,
2013-02-07 07:09:00,45.0,35.8,26.89,NE,45,0.0,3.0,70,0.00,,,0.00,Weather View 32 v70,2013-02-07 14:09:00,
2013-02-07 07:19:00,45.0,35.8,26.90,North,360,0.0,3.0,70,0.00,,,0.00,Weather View 32 v70,2013-02-07 14:19:00,
2013-02-07 07:29:00,45.0,35.8,26.90,North,360,0.0,3.0,70,0.00,,,0.00,Weather View 32 v70,2013-02-07 14:29:00,
2013-02-07 07:39:00,45.0,35.8,26.90,NNE,22,0.0,3.0,70,0.00,,,0.00,Weather View 32 v70,2013-02-07 14:39:00,
2013-02-07 07:49:00,45.0,35.4,26.90,NNE,22,0.0,3.0,69,0.00,,,0.00,Weather View 32 v70,2013-02-07 14:49:00,
2013-02-07 07:59:00,45.0,36.2,26.91,North,360,0.0,0.0,71,0.00,,,0.00,Weather View 32 v70,2013-02-07 14:59:00,
2013-02-07 08:09:00,45.0,36.2,26.91,North,360,0.0,0.0,71,0.00,,,0.00,Weather View 32 v70,2013-02-07 15:09:00,
2013-02-07 08:19:00,45.0,36.5,26.91,North,360,0.0,0.0,72,0.00,,,0.00,Weather View 32 v70,2013-02-07 15:19:00,
2013-02-07 08:29:00,45.0,36.5,26.91,North,360,0.0,0.0,72,0.00,,,0.00,Weather View 32 v70,2013-02-07 15:29:00,
2013-02-07 08:39:00,50.0,40.6,26.89,North,360,0.0,0.0,70,0.00,,,0.00,Weather View 32 v70,2013-02-07 15:39:00,
2013-02-07 08:49:00,52.0,41.0,26.89,North,360,0.0,0.0,66,0.00,,,0.00,Weather View 32 v70,2013-02-07 15:49:00,
2013-02-07 08:59:00,55.0,41.8,26.89,North,360,0.0,0.0,61,0.00,,,0.00,Weather View 32 v70,2013-02-07 15:59:00,
2013-02-07 09:09:00,57.0,41.9,26.88,North,360,0.0,0.0,57,0.00,,,0.00,Weather View 32 v70,2013-02-07 16:09:00,
2013-02-07 09:19:00,59.0,41.9,26.87,North,360,0.0,0.0,53,0.00,,,0.00,Weather View 32 v70,2013-02-07 16:19:00,
2013-02-07 09:30:00,61.0,41.7,26.87,SSW,202,0.0,0.0,49,0.00,,,0.00,Weather View 32 v70,2013-02-07 16:30:00,
2013-02-07 09:39:00,62.0,39.8,26.87,SSW,202,0.0,0.0,44,0.00,,,0.00,Weather View 32 v70,2013-02-07 16:39:00,
2013-02-07 09:49:00,63.0,40.1,26.86,South,180,0.0,0.0,43,0.00,,,0.00,Weather View 32 v70,2013-02-07 16:49:00,
2013-02-07 09:59:00,64.0,39.8,26.85,South,180,0.0,0.0,41,0.00,,,0.00,Weather View 32 v70,2013-02-07 16:59:00,
2013-02-07 10:09:00,65.0,40.0,26.85,SSW,202,0.0,0.0,40,0.00,,,0.00,Weather View 32 v70,2013-02-07 17:09:00,
2013-02-07 10:19:00,66.0,40.3,26.85,West,270,0.0,0.0,39,0.00,,,0.00,Weather View 32 v70,2013-02-07 17:19:00,
2013-02-07 10:29:00,68.0,40.7,26.84,West,270,0.0,3.0,37,0.00,,,0.00,Weather View 32 v70,2013-02-07 17:29:00,
2013-02-07 10:39:00,69.0,39.4,26.84,East,90,0.0,6.0,34,0.00,,,0.00,Weather View 32 v70,2013-02-07 17:39:00,
2013-02-07 10:49:00,70.0,40.3,26.83,WNW,292,0.0,6.0,34,0.00,,,0.00,Weather View 32 v70,2013-02-07 17:49:00,
2013-02-07 10:59:00,70.0,38.7,26.82,NNW,337,0.0,6.0,32,0.00,,,0.00,Weather View 32 v70,2013-02-07 17:59:00,
2013-02-07 11:09:00,71.0,37.9,26.82,WSW,247,0.0,6.0,30,0.00,,,0.00,Weather View 32 v70,2013-02-07 18:09:00,
2013-02-07 11:19:00,71.0,37.1,26.81,SW,225,0.0,7.0,29,0.00,,,0.00,Weather View 32 v70,2013-02-07 18:19:00,
2013-02-07 11:29:00,72.0,37.0,26.81,SSE,157,0.0,7.0,28,0.00,,,0.00,Weather View 32 v70,2013-02-07 18:29:00,
2013-02-07 11:39:00,72.0,37.0,26.80,South,180,0.0,7.0,28,0.00,,,0.00,Weather View 32 v70,2013-02-07 18:39:00,
2013-02-07 11:49:00,73.0,37.0,26.79,SW,225,0.0,7.0,27,0.00,,,0.00,Weather View 32 v70,2013-02-07 18:49:00,
2013-02-07 11:59:00,74.0,35.9,26.79,NW,315,0.0,7.0,25,0.00,,,0.00,Weather View 32 v70,2013-02-07 18:59:00,
2013-02-07 12:09:00,74.0,36.8,26.78,NW,315,0.0,7.0,26,0.00,,,0.00,Weather View 32 v70,2013-02-07 19:09:00,
2013-02-07 12:19:00,75.0,36.7,26.77,West,270,0.0,8.0,25,0.00,,,0.00,Weather View 32 v70,2013-02-07 19:19:00,
2013-02-07 12:29:00,75.0,36.7,26.77,NNE,22,3.0,8.0,25,0.00,,,0.00,Weather View 32 v70,2013-02-07 19:29:00,
2013-02-07 12:39:00,75.0,35.7,26.77,SW,225,0.0,8.0,24,0.00,,,0.00,Weather View 32 v70,2013-02-07 19:39:00,
2013-02-07 12:49:00,75.0,35.7,26.76,NNE,22,0.0,8.0,24,0.00,,,0.00,Weather View 32 v70,2013-02-07 19:49:00,
2013-02-07 12:59:00,75.0,34.6,26.75,SE,135,0.0,8.0,23,0.00,,,0.00,Weather View 32 v70,2013-02-07 19:59:00,
2013-02-07 13:09:00,75.0,35.7,26.75,South,180,3.0,8.0,24,0.00,,,0.00,Weather View 32 v70,2013-02-07 20:09:00,
2013-02-07 13:19:00,73.0,35.0,26.75,SW,225,2.0,11.0,25,0.00,,,0.00,Weather View 32 v70,2013-02-07 20:19:00,
2013-02-07 13:29:00,73.0,35.0,26.74,South,180,0.0,11.0,25,0.00,,,0.00,Weather View 32 v70,2013-02-07 20:29:00,
2013-02-07 13:39:00,73.0,35.0,26.74,SSW,202,0.0,11.0,25,0.00,,,0.00,Weather View 32 v70,2013-02-07 20:39:00,
2013-02-07 13:49:00,74.0,35.9,26.73,WNW,292,0.0,11.0,25,0.00,,,0.00,Weather View 32 v70,2013-02-07 20:49:00,
2013-02-07 13:59:00,74.0,34.8,26.73,SSW,202,0.0,11.0,24,0.00,,,0.00,Weather View 32 v70,2013-02-07 20:59:00,
2013-02-07 14:09:00,74.0,34.8,26.72,NNW,337,0.0,11.0,24,0.00,,,0.00,Weather View 32 v70,2013-02-07 21:09:00,
2013-02-07 14:19:00,75.0,35.7,26.71,SE,135,0.0,9.0,24,0.00,,,0.00,Weather View 32 v70,2013-02-07 21:19:00,
2013-02-07 14:29:00,75.0,35.7,26.71,SSW,202,0.0,7.0,24,0.00,,,0.00,Weather View 32 v70,2013-02-07 21:29:00,
2013-02-07 14:39:00,75.0,35.7,26.71,SSW,202,5.0,7.0,24,0.00,,,0.00,Weather View 32 v70,2013-02-07 21:39:00,
2013-02-07 14:49:00,74.0,34.8,26.70,South,180,0.0,12.0,24,0.00,,,0.00,Weather View 32 v70,2013-02-07 21:49:00,
2013-02-07 14:59:00,73.0,35.0,26.71,SSW,202,0.0,12.0,25,0.00,,,0.00,Weather View 32 v70,2013-02-07 21:59:00,
2013-02-07 15:09:00,73.0,35.0,26.71,South,180,5.0,12.0,25,0.00,,,0.00,Weather View 32 v70,2013-02-07 22:09:00,
2013-02-07 15:19:00,73.0,35.0,26.71,SE,135,0.0,12.0,25,0.00,,,0.00,Weather View 32 v70,2013-02-07 22:19:00,
2013-02-07 15:29:00,73.0,35.0,26.71,SSW,202,0.0,12.0,25,0.00,,,0.00,Weather View 32 v70,2013-02-07 22:29:00,
2013-02-07 15:39:00,73.0,35.0,26.71,South,180,0.0,12.0,25,0.00,,,0.00,Weather View 32 v70,2013-02-07 22:39:00,
2013-02-07 15:49:00,74.0,34.8,26.71,SE,135,0.0,12.0,24,0.00,,,0.00,Weather View 32 v70,2013-02-07 22:49:00,
2013-02-07 15:59:00,73.0,34.0,26.71,SW,225,0.0,10.0,24,0.00,,,0.00,Weather View 32 v70,2013-02-07 22:59:00,
2013-02-07 16:09:00,72.0,34.2,26.71,SW,225,0.0,9.0,25,0.00,,,0.00,Weather View 32 v70,2013-02-07 23:09:00,
2013-02-07 16:19:00,72.0,34.2,26.71,SSW,202,8.0,8.0,25,0.00,,,0.00,Weather View 32 v70,2013-02-07 23:19:00,
2013-02-07 16:29:00,71.0,35.3,26.71,South,180,0.0,9.0,27,0.00,,,0.00,Weather View 32 v70,2013-02-07 23:29:00,
2013-02-07 16:39:00,71.0,35.3,26.71,SSW,202,0.0,9.0,27,0.00,,,0.00,Weather View 32 v70,2013-02-07 23:39:00,
2013-02-07 16:49:00,70.0,34.4,26.71,South,180,6.0,10.0,27,0.00,,,0.00,Weather View 32 v70,2013-02-07 23:49:00,
2013-02-07 16:59:00,70.0,34.4,26.72,South,180,4.0,10.0,27,0.00,,,0.00,Weather View 32 v70,2013-02-07 23:59:00,
2013-02-07 17:09:00,69.0,35.3,26.73,South,180,3.0,10.0,29,0.00,,,0.00,Weather View 32 v70,2013-02-08 00:09:00,
2013-02-07 17:19:00,68.0,35.3,26.73,South,180,0.0,10.0,30,0.00,,,0.00,Weather View 32 v70,2013-02-08 00:19:00,
2013-02-07 17:29:00,67.0,34.5,26.73,South,180,4.0,10.0,30,0.00,,,0.00,Weather View 32 v70,2013-02-08 00:29:00,
2013-02-07 17:39:00,66.0,35.2,26.74,South,180,0.0,10.0,32,0.00,,,0.00,Weather View 32 v70,2013-02-08 00:39:00,
2013-02-07 17:49:00,65.0,34.4,26.74,SSW,202,0.0,10.0,32,0.00,,,0.00,Weather View 32 v70,2013-02-08 00:49:00,
2013-02-07 17:59:00,64.0,34.3,26.75,South,180,0.0,9.0,33,0.00,,,0.00,Weather View 32 v70,2013-02-08 00:59:00,
2013-02-07 18:09:00,63.0,33.4,26.75,South,180,0.0,9.0,33,0.00,,,0.00,Weather View 32 v70,2013-02-08 01:09:00,
2013-02-07 18:19:00,62.0,32.5,26.75,South,180,0.0,9.0,33,0.00,,,0.00,Weather View 32 v70,2013-02-08 01:19:00,
2013-02-07 18:39:00,60.0,35.6,26.76,NNE,22,0.0,6.0,40,0.00,,,0.00,Weather View 32 v70,2013-02-08 01:39:00,
2013-02-07 18:49:00,58.0,34.4,26.76,NNE,22,0.0,6.0,41,0.00,,,0.00,Weather View 32 v70,2013-02-08 01:49:00,
2013-02-07 18:59:00,57.0,35.3,26.76,NE,45,0.0,6.0,44,0.00,,,0.00,Weather View 32 v70,2013-02-08 01:59:00,
2013-02-07 19:09:00,57.0,36.9,26.77,NNE,22,0.0,6.0,47,0.00,,,0.00,Weather View 32 v70,2013-02-08 02:09:00,
2013-02-07 19:19:00,56.0,36.5,26.77,NNE,22,3.0,6.0,48,0.00,,,0.00,Weather View 32 v70,2013-02-08 02:19:00,
2013-02-07 19:29:00,55.0,35.6,26.77,NNE,22,2.0,6.0,48,0.00,,,0.00,Weather View 32 v70,2013-02-08 02:29:00,
2013-02-07 19:35:00,55.0,35.6,26.77,NNE,22,2.0,6.0,48,0.00,,,0.00,Weather View 32 v70,2013-02-08 02:35:00,
2013-02-07 19:49:00,54.0,35.2,26.77,NNE,22,0.0,6.0,49,0.00,,,0.00,Weather View 32 v70,2013-02-08 02:49:00,
2013-02-07 19:59:00,54.0,35.2,26.78,North,360,3.0,6.0,49,0.00,,,0.00,Weather View 32 v70,2013-02-08 02:59:00,
2013-02-07 20:09:00,53.0,34.3,26.78,North,360,0.0,6.0,49,0.00,,,0.00,Weather View 32 v70,2013-02-08 03:09:00,
2013-02-07 20:19:00,53.0,34.3,26.78,NNE,22,5.0,6.0,49,0.00,,,0.00,Weather View 32 v70,2013-02-08 03:19:00,
2013-02-07 20:29:00,53.0,34.3,26.78,NE,45,3.0,10.0,49,0.00,,,0.00,Weather View 32 v70,2013-02-08 03:29:00,
2013-02-07 20:36:00,53.0,34.3,26.78,NE,45,3.0,10.0,49,0.00,,,0.00,Weather View 32 v70,2013-02-08 03:36:00,
2013-02-07 20:49:00,52.0,33.4,26.78,North,360,3.0,10.0,49,0.00,,,0.00,Weather View 32 v70,2013-02-08 03:49:00,
2013-02-07 20:59:00,52.0,33.4,26.79,North,360,3.0,10.0,49,0.00,,,0.00,Weather View 32 v70,2013-02-08 03:59:00,
2013-02-07 21:09:00,52.0,33.4,26.78,NNW,337,3.0,10.0,49,0.00,,,0.00,Weather View 32 v70,2013-02-08 04:09:00,
2013-02-07 21:19:00,52.0,33.4,26.78,ENE,67,0.0,10.0,49,0.00,,,0.00,Weather View 32 v70,2013-02-08 04:19:00,
2013-02-07 21:29:00,51.0,32.0,26.79,NNW,337,0.0,9.0,48,0.00,,,0.00,Weather View 32 v70,2013-02-08 04:29:00,
2013-02-07 21:36:00,51.0,32.0,26.79,NNW,337,0.0,9.0,48,0.00,,,0.00,Weather View 32 v70,2013-02-08 04:36:00,
2013-02-07 21:49:00,51.0,32.0,26.78,North,360,0.0,7.0,48,0.00,,,0.00,Weather View 32 v70,2013-02-08 04:49:00,
2013-02-07 21:59:00,50.0,31.0,26.79,NNW,337,0.0,7.0,48,0.00,,,0.00,Weather View 32 v70,2013-02-08 04:59:00,
2013-02-07 22:09:00,50.0,31.0,26.78,SSW,202,0.0,6.0,48,0.00,,,0.00,Weather View 32 v70,2013-02-08 05:09:00,
2013-02-07 22:19:00,50.0,30.5,26.78,North,360,0.0,5.0,47,0.00,,,0.00,Weather View 32 v70,2013-02-08 05:19:00,
2013-02-07 22:29:00,50.0,30.0,26.78,North,360,0.0,5.0,46,0.00,,,0.00,Weather View 32 v70,2013-02-08 05:29:00,
2013-02-07 22:37:00,50.0,30.0,26.78,North,360,0.0,5.0,46,0.00,,,0.00,Weather View 32 v70,2013-02-08 05:37:00,
2013-02-07 22:49:00,50.0,29.5,26.77,NW,315,0.0,5.0,45,0.00,,,0.00,Weather View 32 v70,2013-02-08 05:49:00,
2013-02-07 22:59:00,50.0,30.0,26.77,NNE,22,0.0,6.0,46,0.00,,,0.00,Weather View 32 v70,2013-02-08 05:59:00,
2013-02-07 23:09:00,50.0,30.5,26.77,SSW,202,0.0,6.0,47,0.00,,,0.00,Weather View 32 v70,2013-02-08 06:09:00,
2013-02-07 23:19:00,50.0,29.5,26.77,NNW,337,0.0,6.0,45,0.00,,,0.00,Weather View 32 v70,2013-02-08 06:19:00,
2013-02-07 23:29:00,50.0,30.5,26.76,North,360,0.0,6.0,47,0.00,,,0.00,Weather View 32 v70,2013-02-08 06:29:00,
2013-02-07 23:37:00,50.0,30.5,26.76,North,360,0.0,6.0,47,0.00,,,0.00,Weather View 32 v70,2013-02-08 06:37:00,
2013-02-07 23:49:00,49.0,28.5,26.77,North,360,0.0,6.0,45,0.00,,,0.00,Weather View 32 v70,2013-02-08 06:49:00,
2013-02-07 23:59:00,49.0,28.5,26.77,NNE,22,0.0,4.0,45,0.00,,,0.00,Weather View 32 v70,2013-02-08 06:59:00,